Tucson, AZ

10:17 PM MST on October 15, 2019 (GMT -0700)
Tucson International

Weather History for KTUS - August, 2019

Change the Weather History Date:

Monday, August 12, 2019

  Actual Average Record
Temperature  
Mean Temperature 88 °F 85 °F  
Max Temperature 99 °F 97 °F 109 °F (2012)
Min Temperature 76 °F 74 °F 57 °F (1900)
Degree Days  
Heating Degree Days 0 0  
Month to date heating degree days 0 0  
Since 1 June heating degree days 0 0  
Since 1 July heating degree days 0 0  
Cooling Degree Days 23 20  
Month to date cooling degree days 285 246  
Year to date cooling degree days 2062 2025  
Since 1 June cooling degree days 1690 1523  
Growing Degree Days 37 (Base 50)    
Moisture  
Dew Point 59 °F    
Average Humidity 39    
Maximum Humidity 67    
Minimum Humidity 14    
Precipitation  
Precipitation 0.00 in 0.08 in 1.38 in (1966)
Month to date precipitation 1.15 1.00  
Year to date precipitation 7.25 6.52  
Sea Level Pressure  
Sea Level Pressure 29.88 in    
Wind  
Wind Speed 4 mph (SSW)    
Max Wind Speed 12 mph    
Max Gust Speed 18 mph    
Visibility 10 miles    
Events      
T = Trace of Precipitation, MM = Missing Value Source: NWS Daily Summary

Daily Weather History Graph

Daily Weather History Graph

Search for Another Location

Airport or City:

Astronomy

Aug. 12, 2019 Rise Set
Actual Time 5:46 AM MST 7:11 PM MST
Civil Twilight 5:20 AM MST 7:36 PM MST
Nautical Twilight 4:49 AM MST 8:07 PM MST
Astronomical Twilight 4:16 AM MST 8:40 PM MST
Moon 5:35 PM MST (8/12) 3:06 AM MST (8/12)
Length of Visible Light 14h 16m
Length of Day
13h 24m
Waxing Gibbous, 93% of the Moon is Illuminated
Aug 12
Waxing Gibbous
Aug 15
Full
Aug 23
Last Quarter
Aug 30
New
Sep 5
First Quarter

Hourly Weather History & Observations

Time (MST) Temp. Heat Index Dew Point Humidity Pressure Visibility Wind Dir Wind Speed Gust Speed Precip Events Conditions
12:53 AM 81.0 °F 83.0 °F 66.0 °F 60% 29.89 in 10.0 mi SE 3.5 mph - N/A   Clear
1:53 AM 82.0 °F 82.7 °F 61.0 °F 49% 29.88 in 10.0 mi SSE 3.5 mph - N/A   Partly Cloudy
2:53 AM 81.0 °F 81.1 °F 57.9 °F 45% 29.88 in 10.0 mi SSE 6.9 mph - N/A   Clear
3:53 AM 79.0 °F - 61.0 °F 54% 29.89 in 10.0 mi Calm Calm - N/A   Clear
4:53 AM 77.0 °F - 63.0 °F 62% 29.91 in 10.0 mi ESE 4.6 mph - N/A   Clear
5:53 AM 75.9 °F - 64.0 °F 67% 29.93 in 10.0 mi SE 4.6 mph - N/A   Clear
6:53 AM 78.1 °F - 64.0 °F 62% 29.94 in 10.0 mi ESE 5.8 mph - N/A   Clear
7:53 AM 82.0 °F 83.4 °F 64.0 °F 54% 29.94 in 10.0 mi SSE 8.1 mph - N/A   Clear
8:53 AM 86.0 °F 86.3 °F 62.1 °F 44% 29.94 in 10.0 mi South 10.4 mph 18.4 mph N/A   Clear
9:53 AM 89.1 °F 89.0 °F 61.0 °F 39% 29.94 in 10.0 mi Variable 4.6 mph - N/A   Scattered Clouds
10:53 AM 91.9 °F 91.5 °F 60.1 °F 34% 29.94 in 10.0 mi NW 4.6 mph - N/A   Partly Cloudy
11:53 AM 93.9 °F 93.2 °F 59.0 °F 31% 29.92 in 10.0 mi Calm Calm - N/A   Clear
12:53 PM 95.0 °F 94.0 °F 57.9 °F 29% 29.90 in 10.0 mi Calm Calm - N/A   Clear
1:53 PM 96.1 °F 94.1 °F 55.0 °F 25% 29.88 in 10.0 mi SSW 4.6 mph - N/A   Clear
2:53 PM 98.1 °F 96.8 °F 57.0 °F 25% 29.85 in 10.0 mi West 8.1 mph - N/A   Partly Cloudy
3:53 PM 99.0 °F 97.3 °F 55.0 °F 23% 29.83 in 10.0 mi SW 6.9 mph - N/A   Partly Cloudy
4:53 PM 98.1 °F 95.7 °F 53.1 °F 22% 29.81 in 10.0 mi WNW 5.8 mph - N/A   Clear
5:53 PM 98.1 °F 95.7 °F 53.1 °F 22% 29.81 in 10.0 mi WNW 3.5 mph - N/A   Clear
6:53 PM 96.1 °F 93.5 °F 53.1 °F 23% 29.81 in 10.0 mi West 4.6 mph - N/A   Clear
7:53 PM 93.0 °F 91.4 °F 55.9 °F 29% 29.82 in 10.0 mi Calm Calm - N/A   Clear
8:53 PM 91.9 °F 90.0 °F 55.0 °F 29% 29.83 in 10.0 mi WSW 3.5 mph - N/A   Clear
9:53 PM 89.1 °F 88.2 °F 59.0 °F 36% 29.85 in 10.0 mi Calm Calm - N/A   Clear
10:53 PM 86.0 °F 85.7 °F 60.1 °F 41% 29.85 in 10.0 mi South 5.8 mph - N/A   Clear
11:53 PM 84.0 °F 84.0 °F 60.1 °F 44% 29.86 in 10.0 mi South 4.6 mph - N/A   Clear